Flag for Germany Weather past 2 weeks in Bayreuth, Bavaria, Germany

Now
61 °F

Clear.


Feels Like: 61 °F
Forecast: 59 / 92 °F
Wind: No wind

Location: Grafenwoehr

Current Time: Aug 5, 2015 at 2:01:36 AM

Latest Report: Aug 5, 2015 at 12:58 AM


Visibility: N/A

Pressure: 30.05 "Hg

Humidity: 88%

Dew point: 57 °F

Location of BayreuthLocation

Historic Weather in Bayreuth — Graph

°F

Bayreuth temperature yesterday

Maximum temperature yesterday: 90 °F (at 4:58 PM)
Minimum temperature yesterday: 54 °F (at 5:58 AM)
Average temperature yesterday: 71 °F

Past Weeks' High & Low Weather Summary

 TemperatureHumidityPressure
High97 °F (Jul 22, 4:58 PM)100% (Jul 23, 1:58 AM)30.10 "Hg (Jul 23, 1:58 AM)
Low41 °F (Jul 31, 5:58 AM)20% (Jul 22, 5:58 PM)29.63 "Hg (Jul 25, 3:58 AM)
Average66 °F64%29.91 "Hg
* Reported Jul 20 11:58 PM — Aug 4 11:58 PM, Bayreuth, Weather by CustomWeather, © 2015

Note: Actual official high and low records may vary slightly from our data, if they occured in-between our weather recording intervals... More about our weather records

Advertising

Bayreuth weather history for previous 24 hours

 ConditionsComfort  
Time TempWeatherWind HumidityBarometerVisibility
11:58 PM
Tue, Aug 4
64 °FClear.2 mph78%30.03 "HgN/A
10:58 PM66 °FClear.3 mph73%30.02 "HgN/A
9:58 PM68 °FClear.3 mph69%30.01 "HgN/A
8:58 PM72 °FMostly cloudy.7 mph65%29.98 "HgN/A
7:58 PM73 °FPartly sunny.9 mph61%29.98 "HgN/A
6:58 PM79 °FDrizzle. Broken clouds.15 mph48%29.94 "HgN/A
5:58 PM84 °FDrizzle. Cloudy.17 mph40%29.89 "HgN/A
4:58 PM90 °FScattered clouds.8 mph27%29.87 "HgN/A
3:58 PM88 °FSunny.6 mph27%29.88 "HgN/A
2:58 PM88 °FSunny.7 mph27%29.87 "HgN/A
1:58 PM84 °FSunny.8 mph35%29.89 "HgN/A
12:58 PM84 °FSunny.6 mph33%29.90 "HgN/A
11:58 AM82 °FSunny.9 mph37%29.91 "HgN/A
10:58 AM81 °FSunny.6 mph45%29.91 "HgN/A
9:58 AM77 °FSunny.3 mph51%29.93 "HgN/A
8:58 AM68 °FSunny.2 mph69%29.94 "HgN/A
7:58 AM61 °FSunny.3 mph83%29.96 "HgN/A
6:58 AM55 °FSunny.1 mph94%29.97 "HgN/A
5:58 AM54 °FClear.No wind94%29.96 "HgN/A
4:58 AM55 °FClear.No wind88%29.97 "HgN/A
3:58 AM55 °FClear.No wind94%29.98 "HgN/A
2:58 AM57 °FClear.No wind88%29.98 "HgN/A
Weather by CustomWeather, © 2015

See weather overviewHow to use our weather pages